When you browse on this site, cookies collect data to enhance your experience and personalize the content and advertising you see.
Visit our Privacy Policy to learn more. By continuing to use the site, you agree to this use of cookies and data.
  • In Deutschland
  • Länderverzeichnis
  • Für 7 Tage
  • Wassertemperatur
  • Wetterkarte
  • Widgets
  • user-avatar
    Anmelden

    Stündliche Wetter Kotyurova

    Heute, 16 Oktober, Mittwoch

    Zeit Temperatur Niederschläge Wind Luftdruck Luftfeuchtigkeit
    00:00 +3°C° 0 mm 2 m/S 740 mmHg 92%
    01:00 +1°C° 0 mm 3 m/S 741 mmHg 93%
    02:00 +1°C° 0 mm 3 m/S 741 mmHg 92%
    03:00 +1°C° 0 mm 3 m/S 741 mmHg 92%
    04:00 -1°C° 0 mm 4 m/S 741 mmHg 91%
    05:00 -1°C° 0 mm 4 m/S 742 mmHg 91%
    06:00 -1°C° 0 mm 4 m/S 742 mmHg 91%
    07:00 -1°C° 0 mm 4 m/S 742 mmHg 90%
    08:00 -1°C° 0 mm 4 m/S 743 mmHg 91%
    09:00 0°C° 0 mm 5 m/S 743 mmHg 92%
    10:00 0°C° 0 mm 5 m/S 744 mmHg 93%
    11:00 0°C° 0.2 mm 5 m/S 744 mmHg 94%
    12:00 0°C° 0.2 mm 5 m/S 744 mmHg 94%
    13:00 0°C° 0.2 mm 5 m/S 745 mmHg 95%
    14:00 0°C° 0 mm 5 m/S 745 mmHg 92%
    15:00 0°C° 0 mm 5 m/S 746 mmHg 89%
    16:00 +1°C° 0 mm 5 m/S 747 mmHg 86%
    17:00 0°C° 0 mm 5 m/S 747 mmHg 86%
    18:00 0°C° 0 mm 5 m/S 747 mmHg 86%
    19:00 0°C° 0 mm 4 m/S 748 mmHg 87%
    20:00 0°C° 0 mm 5 m/S 748 mmHg 86%
    21:00 0°C° 0 mm 5 m/S 749 mmHg 86%
    22:00 0°C° 0 mm 5 m/S 749 mmHg 86%
    23:00 -1°C° 0.1 mm 5 m/S 750 mmHg 86%

    Morgen, 17 Oktober, Donnerstag

    Zeit Temperatur Niederschläge Wind Luftdruck Luftfeuchtigkeit
    00:00 -1°C° 0.1 mm 5 m/S 750 mmHg 87%
    01:00 -2°C° 0.1 mm 5 m/S 750 mmHg 87%
    02:00 -2°C° 0 mm 5 m/S 751 mmHg 86%
    03:00 -2°C° 0 mm 5 m/S 751 mmHg 85%
    04:00 -2°C° 0 mm 4 m/S 752 mmHg 84%
    05:00 -2°C° 0 mm 4 m/S 752 mmHg 84%
    06:00 -2°C° 0 mm 4 m/S 752 mmHg 84%
    07:00 -2°C° 0 mm 4 m/S 753 mmHg 83%
    08:00 -2°C° 0 mm 5 m/S 753 mmHg 79%
    09:00 -1°C° 0 mm 5 m/S 753 mmHg 75%
    10:00 0°C° 0 mm 5 m/S 753 mmHg 71%
    11:00 0°C° 0 mm 5 m/S 754 mmHg 70%
    12:00 0°C° 0 mm 5 m/S 754 mmHg 69%
    13:00 0°C° 0 mm 5 m/S 754 mmHg 67%
    14:00 0°C° 0 mm 4 m/S 754 mmHg 68%
    15:00 0°C° 0 mm 4 m/S 754 mmHg 69%
    16:00 0°C° 0 mm 3 m/S 754 mmHg 70%
    17:00 0°C° 0 mm 3 m/S 754 mmHg 73%
    18:00 +1°C° 0 mm 2 m/S 754 mmHg 75%
    19:00 -1°C° 0 mm 2 m/S 754 mmHg 78%
    20:00 -1°C° 0 mm 2 m/S 753 mmHg 81%
    21:00 -1°C° 0 mm 2 m/S 753 mmHg 84%
    22:00 -1°C° 0 mm 2 m/S 753 mmHg 87%
    23:00 -1°C° 0.3 mm 2 m/S 752 mmHg 90%

    übermorgen, 18 Oktober, Freitag

    Zeit Temperatur Niederschläge Wind Luftdruck Luftfeuchtigkeit
    00:00 -1°C° 0.3 mm 2 m/S 752 mmHg 94%
    01:00 -1°C° 0.3 mm 2 m/S 751 mmHg 97%
    02:00 -1°C° 0.3 mm 2 m/S 751 mmHg 97%
    03:00 -1°C° 0.3 mm 2 m/S 750 mmHg 97%
    04:00 -1°C° 0.3 mm 2 m/S 750 mmHg 97%
    05:00 -1°C° 0.2 mm 3 m/S 749 mmHg 97%
    06:00 -1°C° 0.2 mm 3 m/S 749 mmHg 97%
    07:00 -1°C° 0.2 mm 3 m/S 748 mmHg 97%
    08:00 -1°C° 0.1 mm 3 m/S 748 mmHg 97%
    09:00 +1°C° 0.1 mm 2 m/S 747 mmHg 97%
    10:00 +1°C° 0.1 mm 2 m/S 747 mmHg 97%
    11:00 0°C° 0.6 mm 3 m/S 747 mmHg 97%
    12:00 0°C° 0.6 mm 3 m/S 747 mmHg 98%
    13:00 -1°C° 0.6 mm 4 m/S 747 mmHg 98%
    14:00 -2°C° 0.6 mm 4 m/S 747 mmHg 98%
    15:00 -2°C° 0.6 mm 5 m/S 747 mmHg 97%
    16:00 -2°C° 0.6 mm 5 m/S 748 mmHg 97%
    17:00 -2°C° 0.1 mm 5 m/S 748 mmHg 96%
    18:00 -2°C° 0.1 mm 5 m/S 749 mmHg 94%
    19:00 -2°C° 0.1 mm 5 m/S 750 mmHg 93%
    20:00 -2°C° 0.1 mm 5 m/S 751 mmHg 92%
    21:00 -4°C° 0.1 mm 5 m/S 751 mmHg 90%
    22:00 -4°C° 0.1 mm 5 m/S 752 mmHg 89%
    23:00 -4°C° 0 mm 5 m/S 753 mmHg 88%

    19 Oktober, Samstag

    Zeit Temperatur Niederschläge Wind Luftdruck Luftfeuchtigkeit
    00:00 -5°C° 0 mm 5 m/S 753 mmHg 86%
    01:00 -5°C° 0 mm 5 m/S 754 mmHg 85%
    02:00 -5°C° 0 mm 4 m/S 755 mmHg 86%
    03:00 -5°C° 0 mm 4 m/S 755 mmHg 88%
    04:00 -7°C° 0 mm 4 m/S 756 mmHg 89%
    05:00 -7°C° 0 mm 4 m/S 756 mmHg 90%
    06:00 -7°C° 0 mm 3 m/S 757 mmHg 90%
    07:00 -7°C° 0 mm 3 m/S 757 mmHg 91%
    08:00 -6°C° 0 mm 3 m/S 758 mmHg 87%
    09:00 -5°C° 0 mm 3 m/S 758 mmHg 83%
    10:00 -4°C° 0 mm 3 m/S 758 mmHg 78%
    11:00 -4°C° 0 mm 3 m/S 759 mmHg 76%
    12:00 -2°C° 0 mm 3 m/S 759 mmHg 74%
    13:00 -2°C° 0 mm 2 m/S 759 mmHg 71%
    14:00 -2°C° 0 mm 2 m/S 759 mmHg 73%
    15:00 -1°C° 0 mm 1 m/S 760 mmHg 76%
    16:00 -1°C° 0 mm 1 m/S 760 mmHg 78%
    17:00 -1°C° 0 mm 1 m/S 760 mmHg 80%
    18:00 -2°C° 0 mm 1 m/S 760 mmHg 81%
    19:00 -3°C° 0 mm 0 m/S 761 mmHg 82%
    20:00 -3°C° 0 mm 0 m/S 761 mmHg 83%
    21:00 -4°C° 0 mm 0 m/S 761 mmHg 83%
    22:00 -4°C° 0 mm 0 m/S 762 mmHg 83%
    23:00 -3°C° 0 mm 1 m/S 762 mmHg 84%

    20 Oktober, Sonntag

    Zeit Temperatur Niederschläge Wind Luftdruck Luftfeuchtigkeit
    00:00 -3°C° 0 mm 1 m/S 762 mmHg 85%
    01:00 -3°C° 0 mm 1 m/S 762 mmHg 85%
    02:00 -5°C° 0 mm 2 m/S 762 mmHg 86%
    03:00 -5°C° 0 mm 2 m/S 762 mmHg 87%
    04:00 -5°C° 0 mm 2 m/S 762 mmHg 88%
    05:00 -5°C° 0 mm 2 m/S 762 mmHg 88%
    06:00 -5°C° 0 mm 2 m/S 762 mmHg 88%
    07:00 -5°C° 0 mm 2 m/S 762 mmHg 89%
    08:00 -5°C° 0 mm 3 m/S 762 mmHg 84%
    09:00 -4°C° 0 mm 4 m/S 761 mmHg 79%
    10:00 -3°C° 0 mm 4 m/S 761 mmHg 74%
    11:00 -2°C° 0 mm 5 m/S 761 mmHg 72%
    12:00 -2°C° 0 mm 5 m/S 761 mmHg 71%
    13:00 -1°C° 0 mm 5 m/S 760 mmHg 70%
    14:00 -2°C° 0 mm 5 m/S 760 mmHg 72%
    15:00 -2°C° 0 mm 4 m/S 759 mmHg 74%
    16:00 -2°C° 0 mm 4 m/S 759 mmHg 76%
    17:00 -2°C° 0 mm 4 m/S 759 mmHg 77%
    18:00 -3°C° 0 mm 4 m/S 759 mmHg 78%
    19:00 -4°C° 0 mm 5 m/S 758 mmHg 79%
    20:00 -4°C° 0 mm 5 m/S 758 mmHg 80%
    21:00 -4°C° 0 mm 5 m/S 757 mmHg 80%
    22:00 -4°C° 0 mm 5 m/S 757 mmHg 80%
    23:00 -4°C° 0 mm 5 m/S 757 mmHg 78%

    21 Oktober, Montag

    Zeit Temperatur Niederschläge Wind Luftdruck Luftfeuchtigkeit
    00:00 -4°C° 0 mm 5 m/S 756 mmHg 76%
    01:00 -4°C° 0 mm 5 m/S 756 mmHg 75%
    02:00 -2°C° 0.3 mm 5 m/S 756 mmHg 81%
    03:00 -2°C° 0.3 mm 5 m/S 755 mmHg 87%
    04:00 -2°C° 0.3 mm 5 m/S 755 mmHg 93%
    05:00 -2°C° 1.3 mm 5 m/S 755 mmHg 94%
    06:00 -2°C° 1.3 mm 5 m/S 754 mmHg 96%
    07:00 -2°C° 1.3 mm 5 m/S 754 mmHg 98%
    08:00 -2°C° 1.1 mm 5 m/S 754 mmHg 98%
    09:00 -1°C° 1.1 mm 5 m/S 754 mmHg 98%
    10:00 -1°C° 1.1 mm 5 m/S 754 mmHg 98%
    11:00 -1°C° 0.7 mm 4 m/S 754 mmHg 98%
    12:00 -1°C° 0.7 mm 4 m/S 754 mmHg 98%
    13:00 0°C° 0.7 mm 4 m/S 754 mmHg 98%
    14:00 +1°C° 0.1 mm 3 m/S 754 mmHg 98%
    15:00 +1°C° 0.1 mm 3 m/S 754 mmHg 98%
    16:00 +2°C° 0.1 mm 2 m/S 754 mmHg 97%
    17:00 +2°C° 0 mm 2 m/S 754 mmHg 97%
    18:00 +2°C° 0 mm 2 m/S 754 mmHg 97%
    19:00 +2°C° 0 mm 2 m/S 755 mmHg 97%
    20:00 +3°C° 0.1 mm 1 m/S 755 mmHg 97%
    21:00 +3°C° 0.1 mm 1 m/S 755 mmHg 97%
    22:00 +3°C° 0.1 mm 1 m/S 755 mmHg 97%
    23:00 +3°C° 0 mm 1 m/S 755 mmHg 97%
    Mehr zeigen